| time (UTC) | temp F | wind direction | speed knots | gust knots | rain 1hr in | rain 24hr in | rain mn in | humidity % | barometer mb |
| 20260510124644 | 46 | 153 | 2.6 | 6.1 | 0.00 | 0.00 | 0.00 | 75 | 1019.2 |
| 20260510123144 | 46 | 149 | 2.6 | 5.2 | 0.00 | 0.00 | 0.00 | 76 | 1019.5 |
| 20260510121607 | 45 | 140 | 2.6 | 4.3 | 0.00 | 0.00 | 0.00 | 77 | 1019.6 |
| 20260510120034 | 45 | 155 | 2.6 | 4.3 | 0.00 | 0.00 | 0.00 | 76 | 1019.3 |
| 20260510114654 | 46 | 152 | 2.6 | 3.5 | 0.00 | 0.00 | 0.00 | 75 | 1019.4 |
| 20260510104543 | 47 | 155 | 2.6 | 5.2 | 0.00 | 0.00 | 0.00 | 74 | 1019.4 |
| 20260510103032 | 47 | 153 | 3.5 | 5.2 | 0.00 | 0.00 | 0.00 | 73 | 1019.5 |
| 20260510101606 | 47 | 163 | 2.6 | 5.2 | 0.00 | 0.00 | 0.00 | 73 | 1019.4 |
| 20260510100105 | 47 | 154 | 2.6 | 4.3 | 0.00 | 0.00 | 0.00 | 74 | 1019.3 |
| 20260510094608 | 47 | 156 | 2.6 | 4.3 | 0.00 | 0.00 | 0.00 | 74 | 1019.2 |
| 20260510093036 | 47 | 150 | 2.6 | 4.3 | 0.00 | 0.00 | 0.00 | 74 | 1019.3 |
| 20260510091530 | 48 | 152 | 1.7 | 3.5 | 0.00 | 0.00 | 0.00 | 72 | 1019.5 |
| 20260510090031 | 48 | 144 | 2.6 | 4.3 | 0.00 | 0.00 | 0.00 | 72 | 1019.6 |
| 20260510084535 | 49 | 149 | 1.7 | 4.3 | 0.00 | 0.00 | 0.00 | 71 | 1019.7 |
| 20260510083029 | 49 | 147 | 2.6 | 4.3 | 0.00 | 0.00 | 0.00 | 71 | 1019.8 |
| 20260510081535 | 49 | 154 | 3.5 | 6.1 | 0.00 | 0.00 | 0.00 | 71 | 1020.0 |
| 20260510080033 | 50 | 145 | 2.6 | 4.3 | 0.00 | 0.00 | 0.00 | 71 | 1020.1 |
| 20260510074537 | 49 | 140 | 2.6 | 5.2 | 0.00 | 0.00 | 0.00 | 72 | 1020.1 |
| 20260510073149 | 50 | 154 | 1.7 | 4.3 | 0.00 | 0.00 | 0.00 | 71 | 1020.2 |
| 20260510071536 | 51 | 155 | 2.6 | 3.5 | 0.00 | 0.00 | 0.00 | 70 | 1020.2 |
| 20260510064607 | 52 | 146 | 3.5 | 5.2 | 0.00 | 0.00 | 0.00 | 70 | 1020.1 |
| 20260510063032 | 51 | 157 | 3.5 | 6.1 | 0.00 | 0.00 | 0.00 | 71 | 1020.0 |
| 20260510054528 | 52 | 151 | 2.6 | 4.3 | 0.00 | 0.00 | 0.00 | 71 | 1019.9 |
| 20260510053036 | 53 | 139 | 2.6 | 4.3 | 0.00 | 0.00 | 0.00 | 70 | 1019.9 |
| 20260510051534 | 54 | 159 | 2.6 | 5.2 | 0.00 | 0.00 | 0.00 | 69 | 1019.8 |
| 20260510044606 | 56 | 151 | 2.6 | 4.3 | 0.00 | 0.00 | 0.00 | 67 | 1019.7 |
| 20260510043110 | 57 | 153 | 2.6 | 6.1 | 0.00 | 0.00 | 0.00 | 65 | 1019.7 |
| 20260510041536 | 58 | 173 | 2.6 | 4.3 | 0.00 | 0.00 | 0.00 | 64 | 1019.6 |
| 20260510040036 | 60 | 149 | 3.5 | 5.2 | 0.00 | 0.00 | 0.00 | 61 | 1019.4 |
| 20260510034535 | 62 | 168 | 2.6 | 5.2 | 0.00 | 0.00 | 0.00 | 60 | 1019.3 |
| 20260510033036 | 63 | 155 | 2.6 | 3.5 | 0.00 | 0.00 | 0.00 | 61 | 1019.2 |
| 20260510031534 | 65 | 153 | 1.7 | 3.5 | 0.00 | 0.00 | 0.00 | 57 | 1019.2 |
| 20260510030032 | 66 | 157 | 1.7 | 2.6 | 0.00 | 0.00 | 0.00 | 55 | 1019.3 |
| 20260510024607 | 68 | 144 | 0.9 | 1.7 | 0.00 | 0.00 | 0.00 | 53 | 1019.3 |
| 20260510023029 | 69 | 292 | 0.0 | 0.0 | 0.00 | 0.00 | 0.00 | 49 | 1019.3 |
| 20260510021530 | 70 | 292 | 0.0 | 0.0 | 0.00 | 0.00 | 0.00 | 49 | 1019.2 |
| 20260510020037 | 72 | 292 | 0.0 | 0.0 | 0.00 | 0.00 | 0.00 | 41 | 1019.3 |
| 20260510014530 | 73 | 292 | 0.0 | 0.0 | 0.00 | 0.00 | 0.00 | 35 | 1019.5 |
| 20260510013029 | 73 | 292 | 0.0 | 2.6 | 0.00 | 0.00 | 0.00 | 37 | 1019.6 |
| 20260510011532 | 74 | 298 | 0.9 | 3.5 | 0.00 | 0.00 | 0.00 | 35 | 1019.7 |
| 20260510004535 | 75 | 326 | 1.7 | 7.0 | 0.00 | 0.00 | 0.00 | 35 | 1019.8 |
| 20260510003032 | 74 | 315 | 3.5 | 7.8 | 0.00 | 0.00 | 0.00 | 36 | 1019.9 |
| 20260510001531 | 75 | 312 | 3.5 | 7.0 | 0.00 | 0.00 | 0.00 | 38 | 1019.9 |
| 20260510000031 | 75 | 328 | 3.5 | 7.8 | 0.00 | 0.00 | 0.00 | 37 | 1019.9 |
| 20260509234529 | 76 | 330 | 3.5 | 8.7 | 0.00 | 0.00 | 0.00 | 37 | 1020.0 |
| 20260509233109 | 76 | 307 | 2.6 | 7.0 | 0.00 | 0.00 | 0.00 | 38 | 1020.3 |
| 20260509230111 | 75 | 334 | 3.5 | 7.0 | 0.00 | 0.00 | 0.00 | 38 | 1020.7 |
| 20260509224530 | 75 | 311 | 3.5 | 7.0 | 0.00 | 0.00 | 0.00 | 39 | 1021.0 |
| 20260509223033 | 74 | 323 | 3.5 | 8.7 | 0.00 | 0.00 | 0.00 | 39 | 1021.2 |
| 20260509221531 | 73 | 322 | 3.5 | 8.7 | 0.00 | 0.00 | 0.00 | 40 | 1021.4 |
| 20260509220034 | 73 | 337 | 3.5 | 8.7 | 0.00 | 0.00 | 0.00 | 42 | 1021.5 |
| 20260509214532 | 72 | 318 | 3.5 | 7.8 | 0.00 | 0.00 | 0.00 | 44 | 1021.8 |
| 20260509213030 | 72 | 316 | 3.5 | 9.6 | 0.00 | 0.00 | 0.00 | 47 | 1021.9 |
| 20260509211536 | 71 | 291 | 3.5 | 9.6 | 0.00 | 0.00 | 0.00 | 48 | 1022.0 |
| 20260509210149 | 71 | 300 | 4.3 | 10.4 | 0.00 | 0.00 | 0.00 | 48 | 1022.2 |
| 20260509204537 | 70 | 325 | 2.6 | 9.6 | 0.00 | 0.00 | 0.00 | 49 | 1022.4 |
| 20260509203033 | 69 | 314 | 2.6 | 7.8 | 0.00 | 0.00 | 0.00 | 51 | 1022.4 |
| 20260509201531 | 68 | 341 | 3.5 | 8.7 | 0.00 | 0.00 | 0.00 | 53 | 1022.6 |
| 20260509200144 | 68 | 335 | 4.3 | 8.7 | 0.00 | 0.00 | 0.00 | 53 | 1022.8 |
| 20260509194532 | 67 | 345 | 2.6 | 7.0 | 0.00 | 0.00 | 0.00 | 53 | 1023.0 |
| 20260509193107 | 67 | 354 | 3.5 | 7.8 | 0.00 | 0.00 | 0.00 | 53 | 1023.2 |
| 20260509191534 | 66 | 307 | 3.5 | 7.8 | 0.00 | 0.00 | 0.00 | 52 | 1023.2 |
| 20260509190036 | 66 | 298 | 2.6 | 7.8 | 0.00 | 0.00 | 0.00 | 53 | 1023.4 |
| 20260509184536 | 65 | 304 | 3.5 | 8.7 | 0.00 | 0.00 | 0.00 | 53 | 1023.6 |
| 20260509181537 | 63 | 341 | 2.6 | 8.7 | 0.00 | 0.00 | 0.00 | 54 | 1023.9 |
| 20260509180034 | 63 | 312 | 3.5 | 7.0 | 0.00 | 0.00 | 0.00 | 52 | 1023.8 |
| 20260509173031 | 62 | 332 | 3.5 | 7.0 | 0.00 | 0.00 | 0.00 | 50 | 1023.8 |
| 20260509171534 | 61 | 339 | 3.5 | 7.8 | 0.00 | 0.00 | 0.00 | 52 | 1023.9 |
| 20260509170037 | 60 | 341 | 2.6 | 6.1 | 0.00 | 0.00 | 0.00 | 52 | 1024.0 |
| 20260509164537 | 60 | 344 | 2.6 | 6.1 | 0.00 | 0.00 | 0.00 | 50 | 1024.1 |
| 20260509161643 | 59 | 350 | 1.7 | 5.2 | 0.00 | 0.00 | 0.00 | 50 | 1024.3 |
| 20260509160032 | 60 | 24 | 0.9 | 3.5 | 0.00 | 0.00 | 0.00 | 50 | 1024.3 |
| 20260509154529 | 59 | 50 | 0.9 | 3.5 | 0.00 | 0.00 | 0.00 | 50 | 1024.4 |
| 20260509153152 | 59 | 58 | 0.9 | 3.5 | 0.00 | 0.00 | 0.00 | 51 | 1024.4 |
| 20260509151535 | 57 | 66 | 0.9 | 2.6 | 0.00 | 0.00 | 0.00 | 54 | 1024.3 |
| 20260509150031 | 55 | 118 | 0.9 | 3.5 | 0.00 | 0.00 | 0.00 | 59 | 1024.3 |
| 20260509144534 | 52 | 113 | 1.7 | 3.5 | 0.00 | 0.00 | 0.00 | 65 | 1024.3 |
| 20260509143142 | 47 | 119 | 1.7 | 3.5 | 0.00 | 0.00 | 0.00 | 72 | 1024.4 |
| 20260509141537 | 44 | 131 | 2.6 | 5.2 | 0.00 | 0.00 | 0.00 | 76 | 1024.3 |
| 20260509140030 | 42 | 158 | 2.6 | 4.3 | 0.00 | 0.00 | 0.00 | 79 | 1024.2 |
| 20260509134636 | 41 | 160 | 2.6 | 4.3 | 0.00 | 0.00 | 0.00 | 81 | 1024.1 |
| 20260509133148 | 40 | 162 | 2.6 | 5.2 | 0.00 | 0.00 | 0.00 | 83 | 1024.1 |